Location: ??????????
(54.8537°N, 38.8755°E)
Time: 02:42:46
(UTC+00:00)

Vanguard 2 Rocket - Pass Details

Date: 19 September 2024
Orbit: 553 x 3298 km, 32.9° (Epoch: 14 October)

Event Time Altitude Azimuth Distance (km) Brightness Sun altitude
Exits shadow 23:56:01 26° 186° (S) 3,523 9.4 -25.5°
Maximum altitude 23:57:46 26° 174° (S) 3,634 9.6 -25.3°
Drops below altitude 10° 00:09:54 10° 127° (SE) 5,730 11.1 -24.0°
Sets 00:16:02 0° 118° (ESE) 7,052 11.7 -23.4°
